sat.trackr.live / text

‹ back to catalog

STARLINK-3776

NORAD 52288 · 2022-041AD

PAYLOAD ACTIVE UNKNOWN

§ Identity

Operator
Country
US
Launch date
2022-04-21
Launch site
AFETR
Launch vehicle
Mass (kg)
RCS (m²)

Purposes: comms

External: N2YO · Heavens-Above · Gunter

§ Orbital elements

Epoch: 2026-09-20T01:31:11.234208Z

Period
93.85 min
Inclination
53.1589°
Eccentricity
0.0001366
Mean motion
15.34388911 rev/d
Perigee alt
461.8 km
Apogee alt
463.7 km
Semi-major
6,840.9 km
B*
1.9035e-5
RAAN
293.4389°
Arg perigee
84.2903°
Mean anomaly
275.8255°
Rev number
24,402

§ Raw data

STARLINK-37761 52288U 22041AD  26263.06332447  .00000267  00000+0  19035-4 0  99982 52288  53.1589 293.4389 0001366  84.2903 275.8255 15.34388911244027

JSON: /api/v1/satellites/52288 · /tle

For live sub-satellite position, see the globe view (requires WebGL).

§ Visibility from observer

Set your observer location to see the next 7 days of passes ≥ 10°. The values pass through the URL so the page stays shareable.

No JS? Fill the form by hand. The geolocation button needs JavaScript.